Time,TemperatureF,DewpointF,PressureIn,WindDirection,WindDirectionDegrees,WindSpeedMPH,WindSpeedGustMPH,Humidity,HourlyPrecipIn,Conditions,Clouds,dailyrainin,SoftwareType,DateUTC
2013-01-24 00:00:00,8.7,-5.3,30.06,West,271,4.0,7.0,52,0.00,,,0.00,VWS V14.01,2013-01-24 05:00:00,
2013-01-24 00:01:00,8.7,-5.3,30.06,WNW,284,4.0,7.0,52,0.00,,,0.00,VWS V14.01,2013-01-24 05:01:00,
2013-01-24 00:02:00,8.7,-5.3,30.06,West,271,4.0,7.0,52,0.00,,,0.00,VWS V14.01,2013-01-24 05:02:00,
2013-01-24 00:03:00,8.7,-5.3,30.06,West,271,3.0,3.0,52,0.00,,,0.00,VWS V14.01,2013-01-24 05:03:00,
2013-01-24 00:08:00,8.6,-5.4,30.06,WNW,292,2.0,9.0,52,0.00,,,0.00,VWS V14.01,2013-01-24 05:08:00,
2013-01-24 00:13:00,8.4,-5.6,30.06,West,281,1.0,9.0,52,0.00,,,0.00,VWS V14.01,2013-01-24 05:13:00,
2013-01-24 00:18:00,8.3,-5.7,30.06,West,273,2.0,9.0,52,0.00,,,0.00,VWS V14.01,2013-01-24 05:18:00,
2013-01-24 00:23:00,8.3,-5.3,30.06,NNW,335,2.0,9.0,53,0.00,,,0.00,VWS V14.01,2013-01-24 05:23:00,
2013-01-24 00:28:00,8.2,-5.8,30.06,WNW,284,3.0,9.0,52,0.00,,,0.00,VWS V14.01,2013-01-24 05:28:00,
2013-01-24 00:30:00,8.2,-5.8,30.06,WNW,301,2.0,9.0,52,0.00,,,0.00,VWS V14.01,2013-01-24 05:30:00,
2013-01-24 00:33:00,8.1,-5.5,30.06,West,263,6.0,6.0,53,0.00,,,0.00,VWS V14.01,2013-01-24 05:33:00,
2013-01-24 00:38:00,8.1,-5.9,30.06,WNW,286,3.0,7.0,52,0.00,,,0.00,VWS V14.01,2013-01-24 05:38:00,
2013-01-24 00:43:00,8.1,-5.9,30.06,West,269,1.0,7.0,52,0.00,,,0.00,VWS V14.01,2013-01-24 05:43:00,
2013-01-24 00:48:00,8.1,-5.9,30.06,West,277,4.0,7.0,52,0.00,,,0.00,VWS V14.01,2013-01-24 05:48:00,
2013-01-24 00:53:00,8.1,-5.9,30.06,West,270,6.0,8.0,52,0.00,,,0.00,VWS V14.01,2013-01-24 05:53:00,
2013-01-24 00:58:00,8.1,-5.9,30.06,West,273,2.0,8.0,52,0.00,,,0.00,VWS V14.01,2013-01-24 05:58:00,
2013-01-24 01:00:00,8.0,-6.0,30.06,WNW,284,3.0,8.0,52,0.00,,,0.00,VWS V14.01,2013-01-24 06:00:00,
2013-01-24 01:03:00,8.0,-6.0,30.06,WNW,283,4.0,4.0,52,0.00,,,0.00,VWS V14.01,2013-01-24 06:03:00,
2013-01-24 01:08:00,8.0,-6.0,30.05,West,269,4.0,7.0,52,0.00,,,0.00,VWS V14.01,2013-01-24 06:08:00,
2013-01-24 01:13:00,7.9,-5.7,30.05,NW,324,3.0,7.0,53,0.00,,,0.00,VWS V14.01,2013-01-24 06:13:00,
2013-01-24 01:18:00,7.9,-5.7,30.06,WNW,282,2.0,7.0,53,0.00,,,0.00,VWS V14.01,2013-01-24 06:18:00,
2013-01-24 01:23:00,7.9,-5.7,30.05,West,279,3.0,7.0,53,0.00,,,0.00,VWS V14.01,2013-01-24 06:23:00,
2013-01-24 01:28:00,7.8,-5.8,30.05,West,261,6.0,7.0,53,0.00,,,0.00,VWS V14.01,2013-01-24 06:28:00,
2013-01-24 01:30:00,7.8,-5.8,30.05,West,275,4.0,8.0,53,0.00,,,0.00,VWS V14.01,2013-01-24 06:30:00,
2013-01-24 01:33:00,7.8,-5.8,30.05,West,275,5.0,5.0,53,0.00,,,0.00,VWS V14.01,2013-01-24 06:33:00,
2013-01-24 01:38:00,7.8,-5.8,30.06,West,279,6.0,8.0,53,0.00,,,0.00,VWS V14.01,2013-01-24 06:38:00,
2013-01-24 01:43:00,7.8,-5.8,30.06,WNW,282,5.0,8.0,53,0.00,,,0.00,VWS V14.01,2013-01-24 06:43:00,
2013-01-24 01:48:00,7.7,-5.5,30.06,WNW,295,3.0,9.0,54,0.00,,,0.00,VWS V14.01,2013-01-24 06:48:00,
2013-01-24 01:53:00,7.7,-5.5,30.06,WNW,292,2.0,9.0,54,0.00,,,0.00,VWS V14.01,2013-01-24 06:53:00,
2013-01-24 01:58:00,7.6,-5.6,30.06,WNW,286,3.0,10.0,54,0.00,,,0.00,VWS V14.01,2013-01-24 06:58:00,
2013-01-24 02:00:00,7.5,-5.7,30.06,West,275,4.0,10.0,54,0.00,,,0.00,VWS V14.01,2013-01-24 07:00:00,
2013-01-24 02:03:00,7.5,-5.7,30.06,WNW,287,6.0,7.0,54,0.00,,,0.00,VWS V14.01,2013-01-24 07:03:00,
2013-01-24 02:08:00,7.4,-5.8,30.06,West,281,4.0,8.0,54,0.00,,,0.00,VWS V14.01,2013-01-24 07:08:00,
2013-01-24 02:13:00,7.4,-5.4,30.06,West,267,6.0,9.0,55,0.00,,,0.00,VWS V14.01,2013-01-24 07:13:00,
2013-01-24 02:18:00,7.4,-5.4,30.06,West,277,5.0,10.0,55,0.00,,,0.00,VWS V14.01,2013-01-24 07:18:00,
2013-01-24 02:23:00,7.4,-5.4,30.06,West,267,7.0,10.0,55,0.00,,,0.00,VWS V14.01,2013-01-24 07:23:00,
2013-01-24 02:28:00,7.4,-5.4,30.06,West,269,4.0,12.0,55,0.00,,,0.00,VWS V14.01,2013-01-24 07:28:00,
2013-01-24 02:30:00,7.4,-5.4,30.06,WNW,285,4.0,12.0,55,0.00,,,0.00,VWS V14.01,2013-01-24 07:30:00,
2013-01-24 02:33:00,7.4,-5.4,30.06,West,264,5.0,6.0,55,0.00,,,0.00,VWS V14.01,2013-01-24 07:33:00,
2013-01-24 02:38:00,7.3,-5.5,30.05,West,264,6.0,8.0,55,0.00,,,0.00,VWS V14.01,2013-01-24 07:38:00,
2013-01-24 02:43:00,7.3,-5.5,30.05,WNW,285,4.0,8.0,55,0.00,,,0.00,VWS V14.01,2013-01-24 07:43:00,
2013-01-24 02:48:00,7.3,-5.5,30.05,West,276,4.0,8.0,55,0.00,,,0.00,VWS V14.01,2013-01-24 07:48:00,
2013-01-24 02:53:00,7.3,-5.5,30.05,West,271,4.0,9.0,55,0.00,,,0.00,VWS V14.01,2013-01-24 07:53:00,
2013-01-24 02:58:00,7.3,-5.5,30.05,West,274,3.0,9.0,55,0.00,,,0.00,VWS V14.01,2013-01-24 07:58:00,
2013-01-24 03:00:00,7.3,-5.1,30.05,WNW,282,2.0,9.0,56,0.00,,,0.00,VWS V14.01,2013-01-24 08:00:00,
2013-01-24 03:03:00,7.3,-5.1,30.05,WNW,282,2.0,4.0,56,0.00,,,0.00,VWS V14.01,2013-01-24 08:03:00,
2013-01-24 03:08:00,7.2,-5.2,30.05,WNW,300,2.0,7.0,56,0.00,,,0.00,VWS V14.01,2013-01-24 08:08:00,
2013-01-24 03:13:00,7.2,-5.2,30.04,WNW,285,3.0,8.0,56,0.00,,,0.00,VWS V14.01,2013-01-24 08:13:00,
2013-01-24 03:18:00,7.3,-5.1,30.05,WNW,290,4.0,8.0,56,0.00,,,0.00,VWS V14.01,2013-01-24 08:18:00,
2013-01-24 03:23:00,7.3,-5.1,30.04,West,281,5.0,8.0,56,0.00,,,0.00,VWS V14.01,2013-01-24 08:23:00,
2013-01-24 03:28:00,7.3,-5.1,30.04,WNW,291,3.0,8.0,56,0.00,,,0.00,VWS V14.01,2013-01-24 08:28:00,
2013-01-24 03:30:00,7.3,-5.1,30.04,WNW,284,4.0,8.0,56,0.00,,,0.00,VWS V14.01,2013-01-24 08:30:00,
2013-01-24 03:33:00,7.3,-5.1,30.04,NW,311,4.0,8.0,56,0.00,,,0.00,VWS V14.01,2013-01-24 08:33:00,
2013-01-24 03:38:00,7.3,-4.7,30.04,NW,318,3.0,8.0,57,0.00,,,0.00,VWS V14.01,2013-01-24 08:38:00,
2013-01-24 03:43:00,7.2,-4.8,30.04,West,267,4.0,9.0,57,0.00,,,0.00,VWS V14.01,2013-01-24 08:43:00,
2013-01-24 03:48:00,7.1,-5.3,30.04,West,263,4.0,12.0,56,0.00,,,0.00,VWS V14.01,2013-01-24 08:48:00,
2013-01-24 03:53:00,7.0,-5.4,30.03,WNW,303,4.0,12.0,56,0.00,,,0.00,VWS V14.01,2013-01-24 08:53:00,
2013-01-24 03:58:00,6.9,-5.1,30.04,NW,305,3.0,12.0,57,0.00,,,0.00,VWS V14.01,2013-01-24 08:58:00,
2013-01-24 04:00:00,6.8,-5.2,30.03,NNW,332,3.0,12.0,57,0.00,,,0.00,VWS V14.01,2013-01-24 09:00:00,
2013-01-24 04:03:00,6.8,-5.2,30.03,NNW,336,1.0,3.0,57,0.00,,,0.00,VWS V14.01,2013-01-24 09:03:00,
2013-01-24 04:08:00,6.8,-5.2,30.03,West,262,8.0,9.0,57,0.00,,,0.00,VWS V14.01,2013-01-24 09:08:00,
2013-01-24 04:13:00,6.8,-5.2,30.03,WNW,284,4.0,9.0,57,0.00,,,0.00,VWS V14.01,2013-01-24 09:13:00,
2013-01-24 04:18:00,6.8,-5.2,30.03,WNW,284,5.0,9.0,57,0.00,,,0.00,VWS V14.01,2013-01-24 09:18:00,
2013-01-24 04:23:00,6.7,-5.3,30.03,West,279,2.0,9.0,57,0.00,,,0.00,VWS V14.01,2013-01-24 09:23:00,
2013-01-24 04:28:00,6.7,-5.3,30.03,North,350,3.0,9.0,57,0.00,,,0.00,VWS V14.01,2013-01-24 09:28:00,
2013-01-24 04:30:00,6.7,-5.3,30.03,NW,307,1.0,9.0,57,0.00,,,0.00,VWS V14.01,2013-01-24 09:30:00,
2013-01-24 04:33:00,6.7,-5.3,30.03,West,271,2.0,7.0,57,0.00,,,0.00,VWS V14.01,2013-01-24 09:33:00,
2013-01-24 04:38:00,6.7,-5.3,30.03,West,273,3.0,7.0,57,0.00,,,0.00,VWS V14.01,2013-01-24 09:38:00,
2013-01-24 04:43:00,6.5,-5.1,30.03,West,279,2.0,7.0,58,0.00,,,0.00,VWS V14.01,2013-01-24 09:43:00,
2013-01-24 04:48:00,6.5,-5.5,30.04,WSW,257,6.0,7.0,57,0.00,,,0.00,VWS V14.01,2013-01-24 09:48:00,
2013-01-24 04:53:00,6.4,-5.2,30.04,WNW,300,1.0,7.0,58,0.00,,,0.00,VWS V14.01,2013-01-24 09:53:00,
2013-01-24 04:58:00,6.4,-5.2,30.03,West,275,3.0,7.0,58,0.00,,,0.00,VWS V14.01,2013-01-24 09:58:00,
2013-01-24 05:00:00,6.4,-5.2,30.03,West,275,3.0,8.0,58,0.00,,,0.00,VWS V14.01,2013-01-24 10:00:00,
2013-01-24 05:03:00,6.4,-5.6,30.03,West,275,1.0,6.0,57,0.00,,,0.00,VWS V14.01,2013-01-24 10:03:00,
2013-01-24 05:08:00,6.3,-5.7,30.03,WNW,284,4.0,8.0,57,0.00,,,0.00,VWS V14.01,2013-01-24 10:08:00,
2013-01-24 05:13:00,6.4,-5.6,30.03,West,274,5.0,8.0,57,0.00,,,0.00,VWS V14.01,2013-01-24 10:13:00,
2013-01-24 05:18:00,6.4,-5.2,30.04,WNW,294,3.0,8.0,58,0.00,,,0.00,VWS V14.01,2013-01-24 10:18:00,
2013-01-24 05:23:00,6.3,-5.7,30.03,WNW,290,3.0,8.0,57,0.00,,,0.00,VWS V14.01,2013-01-24 10:23:00,
2013-01-24 05:28:00,6.4,-5.6,30.03,West,267,6.0,9.0,57,0.00,,,0.00,VWS V14.01,2013-01-24 10:28:00,
2013-01-24 05:30:00,6.4,-5.2,30.03,West,271,3.0,9.0,58,0.00,,,0.00,VWS V14.01,2013-01-24 10:30:00,
2013-01-24 05:33:00,6.3,-5.3,30.04,West,272,3.0,5.0,58,0.00,,,0.00,VWS V14.01,2013-01-24 10:33:00,
2013-01-24 05:38:00,6.3,-5.7,30.04,WNW,290,4.0,7.0,57,0.00,,,0.00,VWS V14.01,2013-01-24 10:38:00,
2013-01-24 05:43:00,6.3,-5.7,30.04,West,280,3.0,10.0,57,0.00,,,0.00,VWS V14.01,2013-01-24 10:43:00,
2013-01-24 05:48:00,6.3,-5.7,30.04,West,273,3.0,10.0,57,0.00,,,0.00,VWS V14.01,2013-01-24 10:48:00,
2013-01-24 05:53:00,6.2,-5.8,30.04,West,276,1.0,10.0,57,0.00,,,0.00,VWS V14.01,2013-01-24 10:53:00,
2013-01-24 05:58:00,6.2,-5.8,30.04,WNW,284,4.0,10.0,57,0.00,,,0.00,VWS V14.01,2013-01-24 10:58:00,
2013-01-24 06:00:00,6.2,-5.8,30.04,WNW,288,4.0,10.0,57,0.00,,,0.00,VWS V14.01,2013-01-24 11:00:00,
2013-01-24 06:03:00,6.2,-5.8,30.04,West,265,7.0,7.0,57,0.00,,,0.00,VWS V14.01,2013-01-24 11:03:00,
2013-01-24 06:08:00,6.0,-5.9,30.04,NNW,332,2.0,8.0,57,0.00,,,0.00,VWS V14.01,2013-01-24 11:08:00,
2013-01-24 06:13:00,6.0,-5.6,30.04,West,281,4.0,8.0,58,0.00,,,0.00,VWS V14.01,2013-01-24 11:13:00,
2013-01-24 06:18:00,5.9,-5.7,30.05,NW,317,3.0,8.0,58,0.00,,,0.00,VWS V14.01,2013-01-24 11:18:00,
2013-01-24 06:23:00,5.8,-5.8,30.05,NNW,343,8.0,8.0,58,0.00,,,0.00,VWS V14.01,2013-01-24 11:23:00,
2013-01-24 06:28:00,5.8,-5.8,30.05,WNW,296,4.0,9.0,58,0.00,,,0.00,VWS V14.01,2013-01-24 11:28:00,
2013-01-24 06:30:00,5.8,-5.8,30.05,WNW,286,4.0,9.0,58,0.00,,,0.00,VWS V14.01,2013-01-24 11:30:00,
2013-01-24 06:33:00,5.8,-5.8,30.05,North,5,5.0,5.0,58,0.00,,,0.00,VWS V14.01,2013-01-24 11:33:00,
2013-01-24 06:38:00,5.7,-5.9,30.05,NNW,327,3.0,9.0,58,0.00,,,0.00,VWS V14.01,2013-01-24 11:38:00,
2013-01-24 06:43:00,5.7,-5.5,30.05,NW,314,2.0,9.0,59,0.00,,,0.00,VWS V14.01,2013-01-24 11:43:00,
2013-01-24 06:48:00,5.6,-5.6,30.05,West,279,4.0,9.0,59,0.00,,,0.00,VWS V14.01,2013-01-24 11:48:00,
2013-01-24 06:53:00,5.6,-5.6,30.05,WNW,299,4.0,9.0,59,0.00,,,0.00,VWS V14.01,2013-01-24 11:53:00,
2013-01-24 06:58:00,5.5,-5.7,30.05,WNW,292,4.0,10.0,59,0.00,,,0.00,VWS V14.01,2013-01-24 11:58:00,
2013-01-24 07:00:00,5.5,-5.7,30.05,West,280,4.0,10.0,59,0.00,,,0.00,VWS V14.01,2013-01-24 12:00:00,
2013-01-24 07:03:00,5.5,-5.7,30.05,West,276,3.0,6.0,59,0.00,,,0.00,VWS V14.01,2013-01-24 12:03:00,
2013-01-24 07:08:00,5.5,-5.7,30.05,WNW,295,4.0,7.0,59,0.00,,,0.00,VWS V14.01,2013-01-24 12:08:00,
2013-01-24 07:13:00,5.5,-5.7,30.05,WNW,292,8.0,9.0,59,0.00,,,0.00,VWS V14.01,2013-01-24 12:13:00,
2013-01-24 07:18:00,5.5,-5.7,30.05,West,273,3.0,9.0,59,0.00,,,0.00,VWS V14.01,2013-01-24 12:18:00,
2013-01-24 07:23:00,5.6,-5.6,30.05,West,275,4.0,9.0,59,0.00,,,0.00,VWS V14.01,2013-01-24 12:23:00,
2013-01-24 07:28:00,5.8,-5.8,30.05,West,279,4.0,9.0,58,0.00,,,0.00,VWS V14.01,2013-01-24 12:28:00,
2013-01-24 07:30:00,5.8,-5.4,30.05,NW,318,6.0,9.0,59,0.00,,,0.00,VWS V14.01,2013-01-24 12:30:00,
2013-01-24 07:33:00,5.8,-5.4,30.05,NW,317,1.0,6.0,59,0.00,,,0.00,VWS V14.01,2013-01-24 12:33:00,
2013-01-24 07:38:00,5.9,-5.7,30.05,NW,325,4.0,10.0,58,0.00,,,0.00,VWS V14.01,2013-01-24 12:38:00,
2013-01-24 07:43:00,6.0,-5.2,30.05,WNW,292,4.0,11.0,59,0.00,,,0.00,VWS V14.01,2013-01-24 12:43:00,
2013-01-24 07:48:00,6.0,-5.6,30.05,WNW,285,3.0,11.0,58,0.00,,,0.00,VWS V14.01,2013-01-24 12:48:00,
2013-01-24 07:53:00,6.1,-5.5,30.05,North,5,5.0,11.0,58,0.00,,,0.00,VWS V14.01,2013-01-24 12:53:00,
2013-01-24 07:58:00,6.1,-5.5,30.06,WNW,286,6.0,11.0,58,0.00,,,0.00,VWS V14.01,2013-01-24 12:58:00,
2013-01-24 08:00:00,6.2,-5.4,30.06,NW,304,5.0,11.0,58,0.00,,,0.00,VWS V14.01,2013-01-24 13:00:00,
2013-01-24 08:03:00,6.2,-5.4,30.05,West,272,6.0,6.0,58,0.00,,,0.00,VWS V14.01,2013-01-24 13:03:00,
2013-01-24 08:08:00,6.3,-5.7,30.05,West,273,5.0,10.0,57,0.00,,,0.00,VWS V14.01,2013-01-24 13:08:00,
2013-01-24 08:13:00,6.5,-5.1,30.05,WNW,299,6.0,10.0,58,0.00,,,0.00,VWS V14.01,2013-01-24 13:13:00,
2013-01-24 08:18:00,6.7,-5.3,30.05,NNW,332,3.0,10.0,57,0.00,,,0.00,VWS V14.01,2013-01-24 13:18:00,
2013-01-24 08:23:00,6.9,-5.5,30.06,West,269,6.0,12.0,56,0.00,,,0.00,VWS V14.01,2013-01-24 13:23:00,
2013-01-24 08:28:00,7.1,-5.3,30.06,West,277,5.0,12.0,56,0.00,,,0.00,VWS V14.01,2013-01-24 13:28:00,
2013-01-24 08:30:00,7.3,-5.5,30.06,West,281,2.0,12.0,55,0.00,,,0.00,VWS V14.01,2013-01-24 13:30:00,
2013-01-24 08:33:00,7.3,-5.5,30.06,WNW,287,5.0,7.0,55,0.00,,,0.00,VWS V14.01,2013-01-24 13:33:00,
2013-01-24 08:38:00,7.6,-5.6,30.06,West,270,5.0,9.0,54,0.00,,,0.00,VWS V14.01,2013-01-24 13:38:00,
2013-01-24 08:43:00,7.7,-5.5,30.05,NW,319,5.0,9.0,54,0.00,,,0.00,VWS V14.01,2013-01-24 13:43:00,
2013-01-24 08:48:00,8.0,-5.6,30.06,WNW,294,3.0,10.0,53,0.00,,,0.00,VWS V14.01,2013-01-24 13:48:00,
2013-01-24 08:53:00,8.2,-5.8,30.06,WNW,286,7.0,13.0,52,0.00,,,0.00,VWS V14.01,2013-01-24 13:53:00,
2013-01-24 08:58:00,8.2,-5.8,30.06,West,272,2.0,13.0,52,0.00,,,0.00,VWS V14.01,2013-01-24 13:58:00,
2013-01-24 09:00:00,8.3,-6.1,30.06,NW,323,5.0,13.0,51,0.00,,,0.00,VWS V14.01,2013-01-24 14:00:00,
2013-01-24 09:03:00,8.4,-5.6,30.06,West,275,7.0,8.0,52,0.00,,,0.00,VWS V14.01,2013-01-24 14:03:00,
2013-01-24 09:08:00,8.9,-4.7,30.06,NNW,329,1.0,8.0,53,0.00,,,0.00,VWS V14.01,2013-01-24 14:08:00,
2013-01-24 09:13:00,9.4,-4.7,30.06,NW,319,3.0,9.0,52,0.00,,,0.00,VWS V14.01,2013-01-24 14:13:00,
2013-01-24 09:18:00,9.3,-5.6,30.05,NW,324,5.0,10.0,50,0.00,,,0.00,VWS V14.01,2013-01-24 14:18:00,
2013-01-24 09:23:00,9.2,-5.2,30.06,NW,313,4.0,13.0,51,0.00,,,0.00,VWS V14.01,2013-01-24 14:23:00,
2013-01-24 09:28:00,9.5,-5.4,30.05,NW,306,4.0,13.0,50,0.00,,,0.00,VWS V14.01,2013-01-24 14:28:00,
2013-01-24 09:30:00,9.8,-4.7,30.06,NW,315,5.0,13.0,51,0.00,,,0.00,VWS V14.01,2013-01-24 14:30:00,
2013-01-24 09:33:00,10.0,-4.5,30.05,WNW,300,4.0,10.0,51,0.00,,,0.00,VWS V14.01,2013-01-24 14:33:00,
2013-01-24 09:38:00,10.0,-4.9,30.05,NNW,327,3.0,10.0,50,0.00,,,0.00,VWS V14.01,2013-01-24 14:38:00,
2013-01-24 09:43:00,10.2,-5.2,30.05,NW,310,2.0,13.0,49,0.00,,,0.00,VWS V14.01,2013-01-24 14:43:00,
2013-01-24 09:48:00,10.4,-5.0,30.05,NW,314,3.0,13.0,49,0.00,,,0.00,VWS V14.01,2013-01-24 14:48:00,
2013-01-24 09:53:00,10.9,-4.5,30.05,WNW,282,4.0,13.0,49,0.00,,,0.00,VWS V14.01,2013-01-24 14:53:00,
2013-01-24 09:58:00,11.6,-3.8,30.05,NW,311,2.0,13.0,49,0.00,,,0.00,VWS V14.01,2013-01-24 14:58:00,
2013-01-24 10:00:00,11.9,-3.2,30.05,WNW,290,3.0,13.0,50,0.00,,,0.00,VWS V14.01,2013-01-24 15:00:00,
2013-01-24 10:03:00,12.1,-3.4,30.05,WNW,298,7.0,7.0,49,0.00,,,0.00,VWS V14.01,2013-01-24 15:03:00,
2013-01-24 10:08:00,12.2,-4.2,30.05,North,5,2.0,9.0,47,0.00,,,0.00,VWS V14.01,2013-01-24 15:08:00,
2013-01-24 10:13:00,12.4,-4.0,30.05,NW,317,4.0,10.0,47,0.00,,,0.00,VWS V14.01,2013-01-24 15:13:00,
2013-01-24 10:28:00,12.7,-3.7,30.05,North,355,2.0,10.0,47,0.00,,,0.00,VWS V14.01,2013-01-24 15:28:00,
2013-01-24 10:30:00,13.0,-3.4,30.05,West,266,4.0,10.0,47,0.00,,,0.00,VWS V14.01,2013-01-24 15:30:00,
2013-01-24 10:33:00,13.1,-3.3,30.05,North,355,4.0,6.0,47,0.00,,,0.00,VWS V14.01,2013-01-24 15:33:00,
2013-01-24 11:00:00,14.4,-2.6,30.04,NNW,333,3.0,11.0,46,0.00,,,0.00,VWS V14.01,2013-01-24 16:00:00,
2013-01-24 11:30:00,16.1,-1.5,30.03,NW,323,2.0,10.0,45,0.00,,,0.00,VWS V14.01,2013-01-24 16:30:00,
2013-01-24 12:00:00,16.9,-1.2,30.02,WNW,285,4.0,12.0,44,0.00,,,0.00,VWS V14.01,2013-01-24 17:00:00,
2013-01-24 12:30:00,17.2,-1.4,30.01,NNW,331,5.0,17.0,43,0.00,,,0.00,VWS V14.01,2013-01-24 17:30:00,
2013-01-24 13:00:00,18.9,-0.9,30.00,NW,325,6.0,13.0,41,0.00,,,0.00,VWS V14.01,2013-01-24 18:00:00,
2013-01-24 13:30:00,19.0,-1.3,29.99,NW,311,5.0,15.0,40,0.00,,,0.00,VWS V14.01,2013-01-24 18:30:00,
2013-01-24 14:00:00,19.5,-2.0,30.00,WNW,283,5.0,17.0,38,0.00,,,0.00,VWS V14.01,2013-01-24 19:00:00,
2013-01-24 14:30:00,19.8,-2.2,30.00,NW,323,3.0,16.0,37,0.00,,,0.00,VWS V14.01,2013-01-24 19:30:00,
2013-01-24 15:00:00,19.9,-3.3,30.00,NW,305,3.0,18.0,35,0.00,,,0.00,VWS V14.01,2013-01-24 20:00:00,
2013-01-24 15:30:00,20.5,-2.2,30.00,North,355,3.0,19.0,36,0.00,,,0.00,VWS V14.01,2013-01-24 20:30:00,
2013-01-24 16:00:00,20.6,-2.1,30.01,NW,323,2.0,14.0,36,0.00,,,0.00,VWS V14.01,2013-01-24 21:00:00,
2013-01-24 16:30:00,19.6,-4.2,30.02,WNW,288,6.0,17.0,34,0.00,,,0.00,VWS V14.01,2013-01-24 21:30:00,
2013-01-24 17:00:00,18.8,-3.2,30.03,West,275,5.0,14.0,37,0.00,,,0.00,VWS V14.01,2013-01-24 22:00:00,
2013-01-24 17:04:00,18.7,-3.2,30.04,WNW,284,3.0,7.0,37,0.00,,,0.00,VWS V14.01,2013-01-24 22:04:00,
2013-01-24 17:11:00,18.6,-2.8,30.04,West,276,4.0,11.0,38,0.00,,,0.00,VWS V14.01,2013-01-24 22:11:00,
2013-01-24 17:16:00,18.4,-3.0,30.04,WNW,296,4.0,11.0,38,0.00,,,0.00,VWS V14.01,2013-01-24 22:16:00,
2013-01-24 17:22:00,18.4,-2.4,30.04,WNW,282,3.0,11.0,39,0.00,,,0.00,VWS V14.01,2013-01-24 22:22:00,
2013-01-24 17:27:00,18.2,-2.6,30.05,West,274,3.0,11.0,39,0.00,,,0.00,VWS V14.01,2013-01-24 22:27:00,
2013-01-24 17:30:00,18.2,-2.6,30.05,West,262,7.0,11.0,39,0.00,,,0.00,VWS V14.01,2013-01-24 22:30:00,
2013-01-24 17:32:00,18.2,-2.6,30.05,West,262,5.0,7.0,39,0.00,,,0.00,VWS V14.01,2013-01-24 22:32:00,
2013-01-24 17:37:00,18.1,-2.7,30.05,WNW,291,5.0,11.0,39,0.00,,,0.00,VWS V14.01,2013-01-24 22:37:00,
2013-01-24 17:42:00,18.1,-2.7,30.06,West,280,4.0,11.0,39,0.00,,,0.00,VWS V14.01,2013-01-24 22:42:00,
2013-01-24 17:47:00,18.1,-2.2,30.06,WNW,284,5.0,11.0,40,0.00,,,0.00,VWS V14.01,2013-01-24 22:47:00,
2013-01-24 17:52:00,18.1,-2.7,30.06,West,271,1.0,11.0,39,0.00,,,0.00,VWS V14.01,2013-01-24 22:52:00,
2013-01-24 18:00:00,18.0,-3.3,30.06,WNW,294,2.0,14.0,38,0.00,,,0.00,VWS V14.01,2013-01-24 23:00:00,
2013-01-24 18:13:00,17.9,-3.4,30.06,WSW,247,11.0,14.0,38,0.00,,,0.00,VWS V14.01,2013-01-24 23:13:00,
2013-01-24 18:24:00,17.8,-3.5,30.07,West,271,8.0,14.0,38,0.00,,,0.00,VWS V14.01,2013-01-24 23:24:00,
2013-01-24 18:29:00,17.8,-3.5,30.07,West,273,8.0,14.0,38,0.00,,,0.00,VWS V14.01,2013-01-24 23:29:00,
2013-01-24 18:30:00,17.8,-4.1,30.07,West,271,3.0,14.0,37,0.00,,,0.00,VWS V14.01,2013-01-24 23:30:00,
2013-01-24 18:34:00,17.7,-3.6,30.08,West,276,4.0,9.0,38,0.00,,,0.00,VWS V14.01,2013-01-24 23:34:00,
2013-01-24 18:43:00,17.5,-3.2,30.08,WNW,284,4.0,10.0,39,0.00,,,0.00,VWS V14.01,2013-01-24 23:43:00,
2013-01-24 19:05:00,17.2,-3.0,30.08,West,267,5.0,5.0,40,0.00,,,0.00,VWS V14.01,2013-01-25 00:05:00,
2013-01-24 19:10:00,17.1,-3.0,30.08,WNW,303,2.0,11.0,40,0.00,,,0.00,VWS V14.01,2013-01-25 00:10:00,
2013-01-24 19:15:00,17.1,-3.0,30.08,West,273,3.0,11.0,40,0.00,,,0.00,VWS V14.01,2013-01-25 00:15:00,
2013-01-24 19:20:00,17.0,-3.1,30.08,West,281,4.0,11.0,40,0.00,,,0.00,VWS V14.01,2013-01-25 00:20:00,
2013-01-24 19:24:00,17.0,-2.6,30.08,WNW,291,3.0,11.0,41,0.00,,,0.00,VWS V14.01,2013-01-25 00:24:00,
2013-01-24 19:29:00,16.8,-2.3,30.09,WNW,286,3.0,11.0,42,0.00,,,0.00,VWS V14.01,2013-01-25 00:29:00,
2013-01-24 19:34:00,16.7,-1.9,30.08,WNW,284,0.0,2.0,43,0.00,,,0.00,VWS V14.01,2013-01-25 00:34:00,
2013-01-24 19:39:00,16.8,-1.8,30.09,West,274,3.0,7.0,43,0.00,,,0.00,VWS V14.01,2013-01-25 00:39:00,
2013-01-24 19:44:00,16.7,-1.9,30.09,West,267,5.0,9.0,43,0.00,,,0.00,VWS V14.01,2013-01-25 00:44:00,
2013-01-24 19:49:00,16.6,-2.0,30.08,WNW,296,4.0,9.0,43,0.00,,,0.00,VWS V14.01,2013-01-25 00:49:00,
2013-01-24 19:54:00,16.6,-2.0,30.08,West,278,6.0,10.0,43,0.00,,,0.00,VWS V14.01,2013-01-25 00:54:00,
2013-01-24 19:59:00,16.5,-2.1,30.09,West,272,2.0,11.0,43,0.00,,,0.00,VWS V14.01,2013-01-25 00:59:00,
2013-01-24 20:04:00,16.5,-2.1,30.09,WNW,282,3.0,9.0,43,0.00,,,0.00,VWS V14.01,2013-01-25 01:04:00,
2013-01-24 20:09:00,16.4,-2.2,30.09,West,281,2.0,9.0,43,0.00,,,0.00,VWS V14.01,2013-01-25 01:09:00,
2013-01-24 20:14:00,16.3,-2.3,30.09,WNW,296,3.0,9.0,43,0.00,,,0.00,VWS V14.01,2013-01-25 01:14:00,
2013-01-24 20:19:00,16.2,-1.9,30.09,West,275,5.0,9.0,44,0.00,,,0.00,VWS V14.01,2013-01-25 01:19:00,
2013-01-24 20:24:00,16.0,-2.0,30.09,West,267,3.0,9.0,44,0.00,,,0.00,VWS V14.01,2013-01-25 01:24:00,
2013-01-24 20:29:00,16.0,-1.6,30.09,West,267,3.0,9.0,45,0.00,,,0.00,VWS V14.01,2013-01-25 01:29:00,
2013-01-24 20:34:00,15.8,-1.8,30.10,West,277,1.0,7.0,45,0.00,,,0.00,VWS V14.01,2013-01-25 01:34:00,
2013-01-24 20:39:00,15.8,-2.2,30.10,West,268,5.0,8.0,44,0.00,,,0.00,VWS V14.01,2013-01-25 01:39:00,
2013-01-24 20:44:00,15.7,-2.3,30.10,West,273,2.0,9.0,44,0.00,,,0.00,VWS V14.01,2013-01-25 01:44:00,
2013-01-24 20:49:00,15.5,-2.5,30.10,WSW,257,8.0,9.0,44,0.00,,,0.00,VWS V14.01,2013-01-25 01:49:00,
2013-01-24 20:54:00,15.5,-3.0,30.10,NW,304,3.0,10.0,43,0.00,,,0.00,VWS V14.01,2013-01-25 01:54:00,
2013-01-24 20:59:00,15.4,-3.1,30.10,West,267,6.0,10.0,43,0.00,,,0.00,VWS V14.01,2013-01-25 01:59:00,
2013-01-24 21:04:00,15.3,-2.7,30.10,WNW,292,3.0,8.0,44,0.00,,,0.00,VWS V14.01,2013-01-25 02:04:00,
2013-01-24 21:09:00,15.2,-2.8,30.11,West,279,4.0,8.0,44,0.00,,,0.00,VWS V14.01,2013-01-25 02:09:00,
2013-01-24 21:14:00,15.2,-3.3,30.11,WNW,286,8.0,16.0,43,0.00,,,0.00,VWS V14.01,2013-01-25 02:14:00,
2013-01-24 21:19:00,15.1,-3.4,30.10,NW,308,5.0,16.0,43,0.00,,,0.00,VWS V14.01,2013-01-25 02:19:00,
2013-01-24 21:24:00,15.0,-3.0,30.11,West,271,3.0,16.0,44,0.00,,,0.00,VWS V14.01,2013-01-25 02:24:00,
2013-01-24 21:29:00,14.9,-3.1,30.11,West,270,5.0,16.0,44,0.00,,,0.00,VWS V14.01,2013-01-25 02:29:00,
2013-01-24 21:34:00,14.7,-3.2,30.11,WNW,285,4.0,8.0,44,0.00,,,0.00,VWS V14.01,2013-01-25 02:34:00,
2013-01-24 21:39:00,14.6,-3.3,30.11,WNW,285,1.0,11.0,44,0.00,,,0.00,VWS V14.01,2013-01-25 02:39:00,
2013-01-24 21:44:00,14.5,-3.4,30.12,West,266,3.0,11.0,44,0.00,,,0.00,VWS V14.01,2013-01-25 02:44:00,
2013-01-24 21:49:00,14.4,-3.5,30.12,WSW,243,5.0,11.0,44,0.00,,,0.00,VWS V14.01,2013-01-25 02:49:00,
2013-01-24 21:54:00,14.3,-3.1,30.12,West,263,4.0,11.0,45,0.00,,,0.00,VWS V14.01,2013-01-25 02:54:00,
2013-01-24 21:59:00,14.2,-3.7,30.12,West,278,3.0,11.0,44,0.00,,,0.00,VWS V14.01,2013-01-25 02:59:00,
2013-01-24 22:04:00,14.1,-3.3,30.12,NW,311,2.0,9.0,45,0.00,,,0.00,VWS V14.01,2013-01-25 03:04:00,
2013-01-24 22:09:00,14.0,-3.4,30.12,West,260,2.0,9.0,45,0.00,,,0.00,VWS V14.01,2013-01-25 03:09:00,
2013-01-24 22:14:00,14.0,-3.4,30.12,WNW,284,2.0,11.0,45,0.00,,,0.00,VWS V14.01,2013-01-25 03:14:00,
2013-01-24 22:19:00,13.9,-3.0,30.12,WNW,300,3.0,11.0,46,0.00,,,0.00,VWS V14.01,2013-01-25 03:19:00,
2013-01-24 22:24:00,13.8,-3.6,30.12,West,279,2.0,11.0,45,0.00,,,0.00,VWS V14.01,2013-01-25 03:24:00,
2013-01-24 22:29:00,13.7,-3.7,30.12,West,275,6.0,11.0,45,0.00,,,0.00,VWS V14.01,2013-01-25 03:29:00,
2013-01-24 22:34:00,13.7,-3.7,30.12,West,277,2.0,10.0,45,0.00,,,0.00,VWS V14.01,2013-01-25 03:34:00,
2013-01-24 22:39:00,13.6,-3.8,30.12,West,272,9.0,11.0,45,0.00,,,0.00,VWS V14.01,2013-01-25 03:39:00,
2013-01-24 22:44:00,13.6,-3.8,30.13,West,277,4.0,11.0,45,0.00,,,0.00,VWS V14.01,2013-01-25 03:44:00,
2013-01-24 22:49:00,13.5,-3.4,30.13,NW,315,5.0,11.0,46,0.00,,,0.00,VWS V14.01,2013-01-25 03:49:00,
2013-01-24 22:54:00,13.4,-4.0,30.13,NNW,338,3.0,11.0,45,0.00,,,0.00,VWS V14.01,2013-01-25 03:54:00,
2013-01-24 22:59:00,13.3,-3.6,30.13,West,281,4.0,11.0,46,0.00,,,0.00,VWS V14.01,2013-01-25 03:59:00,
2013-01-24 23:04:00,13.2,-3.7,30.13,WNW,284,2.0,5.0,46,0.00,,,0.00,VWS V14.01,2013-01-25 04:04:00,
2013-01-24 23:09:00,13.2,-3.7,30.14,West,275,2.0,7.0,46,0.00,,,0.00,VWS V14.01,2013-01-25 04:09:00,
2013-01-24 23:14:00,13.2,-4.2,30.13,West,273,6.0,9.0,45,0.00,,,0.00,VWS V14.01,2013-01-25 04:14:00,
2013-01-24 23:19:00,13.2,-4.2,30.13,West,279,4.0,11.0,45,0.00,,,0.00,VWS V14.01,2013-01-25 04:19:00,
2013-01-24 23:24:00,13.1,-4.2,30.14,West,279,3.0,11.0,45,0.00,,,0.00,VWS V14.01,2013-01-25 04:24:00,
2013-01-24 23:29:00,13.1,-4.2,30.14,North,360,3.0,12.0,45,0.00,,,0.00,VWS V14.01,2013-01-25 04:29:00,
2013-01-24 23:34:00,13.1,-4.2,30.15,West,280,1.0,5.0,45,0.00,,,0.00,VWS V14.01,2013-01-25 04:34:00,
2013-01-24 23:39:00,13.1,-4.7,30.15,West,268,3.0,11.0,44,0.00,,,0.00,VWS V14.01,2013-01-25 04:39:00,
2013-01-24 23:44:00,13.1,-4.7,30.15,West,273,3.0,11.0,44,0.00,,,0.00,VWS V14.01,2013-01-25 04:44:00,
2013-01-24 23:49:00,13.1,-4.2,30.15,West,266,6.0,11.0,45,0.00,,,0.00,VWS V14.01,2013-01-25 04:49:00,
2013-01-24 23:54:00,12.9,-4.4,30.16,West,265,2.0,11.0,45,0.00,,,0.00,VWS V14.01,2013-01-25 04:54:00,
2013-01-24 23:59:00,12.9,-4.4,30.16,West,263,9.0,11.0,45,0.00,,,0.00,VWS V14.01,2013-01-25 04:59:00,